ASTRA 3B (36581 NORAD) Tracking and Keplerian Element Data

This shows tracking and keplerian element data for the satellite.

Feedback or suggestion? Click here.




ElementValue
Catalog36581
NameASTRA 3B
Epoch Orbit5386
Epoch Day34.68826542
Epoch Year2025
RAAN92.5393
Inclination0.1767
Eccentricity0.0002292
Argument of Perigee235.3083
Mean Anonmoly77.5009
Mean Motion1.00270999
Decay Rate1.41E-06
L11 36581U 10021A 25034.68826542 .00000141 00000+0 00000+0 0 9996
L22 36581 0.1767 92.5393 0002292 235.3083 77.5009 1.00270999 53863



Live tracking and technical data element details for ASTRA 3B (NORAD 36581). ASTRA 3B can be tracked NOW for your location showing map with azimuth and elevation plus other details from your city location.







IsCatalogInMostPopularTable: catalog: 36581, numindb: 343
Update: records affected: 1



GetName: 36581 ASTRA 3B

Hit Count: updated at: Sat, 24 May 2025 16:42:47 GMT